| time (UTC) | temp C | wind direction | speed KPH | gust KPH | rain 1hr cm | rain 24hr cm | rain mn cm | humidity % | barometer mb |
| 20260906211516 | 38 | 103 | 3.2 | 11.3 | 0.00 | 0.00 | 0.00 | 40 | 1012.5 |
| 20260906210024 | 38 | 119 | 3.2 | 16.1 | 0.00 | 0.00 | 0.00 | 40 | 1012.7 |
| 20260906204526 | 38 | 121 | 4.8 | 12.9 | 0.00 | 0.00 | 0.00 | 40 | 1012.9 |
| 20260906203031 | 38 | 100 | 4.8 | 16.1 | 0.00 | 0.00 | 0.00 | 40 | 1013.1 |
| 20260906201512 | 37 | 79 | 3.2 | 16.1 | 0.00 | 0.00 | 0.00 | 41 | 1013.2 |
| 20260906200017 | 37 | 103 | 1.6 | 12.9 | 0.00 | 0.00 | 0.00 | 42 | 1013.5 |
| 20260906194526 | 37 | 165 | 6.4 | 19.3 | 0.00 | 0.00 | 0.00 | 42 | 1013.5 |
| 20260906193027 | 37 | 36 | 4.8 | 14.5 | 0.00 | 0.00 | 0.00 | 44 | 1013.7 |
| 20260906191534 | 37 | 96 | 3.2 | 12.9 | 0.00 | 0.00 | 0.00 | 44 | 1013.9 |
| 20260906190014 | 37 | 112 | 4.8 | 19.3 | 0.00 | 0.00 | 0.00 | 45 | 1014.1 |
| 20260906184521 | 37 | 54 | 6.4 | 16.1 | 0.00 | 0.00 | 0.00 | 45 | 1014.2 |
| 20260906183030 | 37 | 133 | 1.6 | 14.5 | 0.00 | 0.00 | 0.00 | 46 | 1014.4 |
| 20260906181533 | 37 | 59 | 4.8 | 16.1 | 0.00 | 0.00 | 0.00 | 46 | 1014.5 |
| 20260906180036 | 36 | 73 | 1.6 | 11.3 | 0.00 | 0.00 | 0.00 | 47 | 1014.6 |
| 20260906174517 | 36 | 185 | 3.2 | 11.3 | 0.00 | 0.00 | 0.00 | 48 | 1015.0 |
| 20260906173023 | 36 | 119 | 3.2 | 12.9 | 0.00 | 0.00 | 0.00 | 48 | 1015.2 |
| 20260906171530 | 35 | 191 | 3.2 | 12.9 | 0.00 | 0.00 | 0.00 | 48 | 1015.4 |
| 20260906170011 | 35 | 67 | 1.6 | 9.7 | 0.00 | 0.00 | 0.00 | 50 | 1015.5 |
| 20260906164514 | 35 | 114 | 1.6 | 12.9 | 0.00 | 0.00 | 0.00 | 51 | 1015.4 |
| 20260906163020 | 35 | 102 | 3.2 | 12.9 | 0.00 | 0.00 | 0.00 | 53 | 1015.5 |
| 20260906161533 | 34 | 103 | 6.4 | 12.9 | 0.00 | 0.00 | 0.00 | 53 | 1015.4 |
| 20260906160029 | 33 | 104 | 3.2 | 11.3 | 0.00 | 0.00 | 0.00 | 55 | 1015.3 |
| 20260906154516 | 33 | 103 | 1.6 | 9.7 | 0.00 | 0.00 | 0.00 | 56 | 1015.4 |
| 20260906153019 | 32 | 147 | 0.0 | 9.7 | 0.00 | 0.00 | 0.00 | 62 | 1015.5 |
| 20260906151522 | 32 | 109 | 0.0 | 9.7 | 0.00 | 0.00 | 0.00 | 66 | 1015.2 |
| 20260906150026 | 31 | 82 | 1.6 | 9.7 | 0.00 | 0.00 | 0.00 | 68 | 1015.0 |
| 20260906144533 | 30 | 92 | 0.0 | 4.8 | 0.00 | 0.00 | 0.00 | 70 | 1015.1 |
| 20260906143008 | 30 | 92 | 0.0 | 6.4 | 0.00 | 0.00 | 0.00 | 73 | 1015.2 |
| 20260906141504 | 28 | 186 | 0.0 | 3.2 | 0.00 | 0.00 | 0.00 | 77 | 1015.4 |
| 20260906140002 | 27 | 186 | 0.0 | 3.2 | 0.00 | 0.00 | 0.00 | 81 | 1015.2 |
| 20260906134507 | 26 | 186 | 0.0 | 0.0 | 0.00 | 0.00 | 0.00 | 85 | 1015.0 |
| 20260906133022 | 26 | 188 | 0.0 | 0.0 | 0.00 | 0.00 | 0.00 | 87 | 1015.1 |
| 20260906131510 | 25 | 188 | 0.0 | 0.0 | 0.00 | 0.00 | 0.00 | 88 | 1015.2 |
| 20260906130006 | 25 | 188 | 0.0 | 1.6 | 0.00 | 0.00 | 0.00 | 87 | 1015.1 |
| 20260906124503 | 25 | 188 | 0.0 | 1.6 | 0.00 | 0.00 | 0.00 | 86 | 1014.8 |
| 20260906123011 | 25 | 188 | 0.0 | 1.6 | 0.00 | 0.00 | 0.00 | 85 | 1014.9 |
| 20260906121514 | 25 | 188 | 0.0 | 0.0 | 0.00 | 0.00 | 0.00 | 84 | 1014.9 |
| 20260906120013 | 25 | 188 | 0.0 | 0.0 | 0.00 | 0.00 | 0.00 | 83 | 1014.6 |
| 20260906114507 | 25 | 188 | 0.0 | 0.0 | 0.00 | 0.00 | 0.00 | 82 | 1014.5 |
| 20260906113011 | 25 | 188 | 0.0 | 0.0 | 0.00 | 0.00 | 0.00 | 82 | 1014.4 |
| 20260906111512 | 25 | 188 | 0.0 | 0.0 | 0.00 | 0.00 | 0.00 | 82 | 1014.2 |
| 20260906110015 | 26 | 188 | 0.0 | 0.0 | 0.00 | 0.00 | 0.00 | 81 | 1014.1 |
| 20260906104533 | 26 | 188 | 0.0 | 0.0 | 0.00 | 0.00 | 0.00 | 81 | 1014.0 |
| 20260906103013 | 26 | 188 | 0.0 | 0.0 | 0.00 | 0.00 | 0.00 | 80 | 1013.9 |
| 20260906101510 | 26 | 188 | 0.0 | 0.0 | 0.00 | 0.00 | 0.00 | 80 | 1013.8 |
| 20260906100024 | 26 | 188 | 0.0 | 0.0 | 0.00 | 0.00 | 0.00 | 79 | 1013.8 |
| 20260906094517 | 26 | 188 | 0.0 | 0.0 | 0.00 | 0.00 | 0.00 | 79 | 1013.7 |
| 20260906093023 | 27 | 188 | 0.0 | 1.6 | 0.00 | 0.00 | 0.00 | 78 | 1013.4 |
| 20260906091513 | 27 | 188 | 0.0 | 0.0 | 0.00 | 0.00 | 0.00 | 78 | 1013.6 |
| 20260906090016 | 27 | 188 | 0.0 | 3.2 | 0.00 | 0.00 | 0.00 | 78 | 1013.3 |
| 20260906084516 | 27 | 190 | 1.6 | 8.0 | 0.00 | 0.00 | 0.00 | 78 | 1013.3 |
| 20260906083018 | 27 | 190 | 0.0 | 4.8 | 0.00 | 0.00 | 0.00 | 77 | 1013.1 |
| 20260906081520 | 27 | 184 | 0.0 | 8.0 | 0.00 | 0.00 | 0.00 | 76 | 1013.1 |
| 20260906080010 | 27 | 186 | 0.0 | 4.8 | 0.00 | 0.00 | 0.00 | 75 | 1013.2 |
| 20260906074515 | 27 | 186 | 0.0 | 3.2 | 0.00 | 0.00 | 0.00 | 74 | 1013.3 |
| 20260906073024 | 27 | 186 | 1.6 | 4.8 | 0.00 | 0.00 | 0.00 | 73 | 1013.1 |
| 20260906071524 | 28 | 186 | 0.0 | 6.4 | 0.00 | 0.00 | 0.00 | 72 | 1013.3 |
| 20260906070017 | 28 | 185 | 0.0 | 4.8 | 0.00 | 0.00 | 0.00 | 71 | 1013.6 |
| 20260906064513 | 28 | 185 | 1.6 | 6.4 | 0.00 | 0.00 | 0.00 | 70 | 1013.5 |
| 20260906063014 | 28 | 180 | 0.0 | 4.8 | 0.00 | 0.00 | 0.00 | 69 | 1013.6 |
| 20260906061527 | 28 | 179 | 1.6 | 8.0 | 0.00 | 0.00 | 0.00 | 69 | 1013.5 |
| 20260906060028 | 28 | 173 | 0.0 | 4.8 | 0.00 | 0.00 | 0.00 | 68 | 1013.6 |
| 20260906054508 | 28 | 180 | 0.0 | 4.8 | 0.00 | 0.00 | 0.00 | 68 | 1013.7 |
| 20260906053029 | 29 | 180 | 0.0 | 6.4 | 0.00 | 0.00 | 0.00 | 68 | 1013.5 |
| 20260906051531 | 29 | 177 | 0.0 | 6.4 | 0.00 | 0.00 | 0.00 | 68 | 1013.4 |
| 20260906050035 | 29 | 175 | 0.0 | 11.3 | 0.00 | 0.00 | 0.00 | 68 | 1013.5 |
| 20260906044530 | 29 | 184 | 1.6 | 8.0 | 0.00 | 0.00 | 0.00 | 67 | 1013.6 |
| 20260906043029 | 29 | 176 | 1.6 | 8.0 | 0.00 | 0.00 | 0.00 | 67 | 1013.7 |
| 20260906041530 | 30 | 178 | 0.0 | 6.4 | 0.00 | 0.00 | 0.00 | 66 | 1013.5 |
| 20260906040025 | 30 | 196 | 1.6 | 8.0 | 0.00 | 0.00 | 0.00 | 66 | 1013.5 |
| 20260906034545 | 30 | 198 | 0.0 | 9.7 | 0.00 | 0.00 | 0.00 | 65 | 1013.6 |
| 20260906033027 | 30 | 169 | 1.6 | 11.3 | 0.00 | 0.00 | 0.00 | 65 | 1013.5 |
| 20260906031559 | 30 | 183 | 3.2 | 12.9 | 0.00 | 0.00 | 0.00 | 64 | 1013.6 |
| 20260906030032 | 30 | 182 | 3.2 | 11.3 | 0.00 | 0.00 | 0.00 | 63 | 1013.6 |
| 20260906024549 | 30 | 122 | 1.6 | 12.9 | 0.00 | 0.00 | 0.00 | 62 | 1013.5 |
| 20260906023010 | 31 | 130 | 4.8 | 11.3 | 0.00 | 0.00 | 0.00 | 61 | 1013.3 |
| 20260906021510 | 31 | 116 | 1.6 | 16.1 | 0.00 | 0.00 | 0.00 | 59 | 1013.1 |
| 20260906020020 | 32 | 143 | 4.8 | 16.1 | 0.00 | 0.00 | 0.00 | 57 | 1012.9 |
| 20260906014524 | 32 | 185 | 4.8 | 16.1 | 0.00 | 0.00 | 0.00 | 55 | 1012.7 |
| 20260906013028 | 33 | 161 | 4.8 | 11.3 | 0.00 | 0.00 | 0.00 | 53 | 1012.5 |
| 20260906011510 | 34 | 157 | 3.2 | 12.9 | 0.00 | 0.00 | 0.00 | 51 | 1012.2 |
| 20260906010037 | 35 | 114 | 3.2 | 12.9 | 0.00 | 0.00 | 0.00 | 46 | 1011.9 |
| 20260906004524 | 35 | 107 | 0.0 | 6.4 | 0.00 | 0.00 | 0.00 | 45 | 1011.8 |
| 20260906003029 | 36 | 109 | 1.6 | 9.7 | 0.00 | 0.00 | 0.00 | 44 | 1011.8 |
| 20260906001536 | 36 | 91 | 1.6 | 6.4 | 0.00 | 0.00 | 0.00 | 42 | 1011.8 |
| 20260906000018 | 37 | 115 | 1.6 | 11.3 | 0.00 | 0.00 | 0.00 | 41 | 1011.8 |
| 20260905234518 | 37 | 98 | 1.6 | 6.4 | 0.00 | 0.00 | 0.00 | 40 | 1011.6 |
| 20260905233025 | 38 | 101 | 0.0 | 8.0 | 0.00 | 0.00 | 0.00 | 40 | 1011.7 |
| 20260905231531 | 38 | 107 | 1.6 | 11.3 | 0.00 | 0.00 | 0.00 | 38 | 1011.7 |
| 20260905230035 | 38 | 117 | 1.6 | 6.4 | 0.00 | 0.00 | 0.00 | 38 | 1011.6 |
| 20260905224519 | 38 | 90 | 1.6 | 14.5 | 0.00 | 0.00 | 0.00 | 38 | 1011.6 |